NSZ3213 ESSA-EKCH

Flight info

Callsign NSZ3213
Flight time 1h 13m
Altitude 34000
Route PETEV N872 ELPAX DCT TOKSI N872 ERNOV
Aircraft B738/M-SDE2E3FGHIRWXY/LB1

Departure

Time 2026-04-26 18:51
Airport Stockholm-Arlanda Airport (ESSA)

Arrival

Time 2026-04-26 20:05
Airport Copenhagen Kastrup Airport (EKCH)
Time Latitude Longitude Altitude Speed Heading
2026-04-26 17:54 59.64697 17.92730 111 ft 0 kts 26°
2026-04-26 18:36 59.64691 17.92724 109 ft 2 kts 26°
2026-04-26 18:36 59.64676 17.92709 108 ft 2 kts 25°
2026-04-26 18:37 59.64661 17.92696 110 ft 2 kts 25°
2026-04-26 18:37 59.64646 17.92682 109 ft 2 kts 25°
2026-04-26 18:37 59.64642 17.92679 111 ft 0 kts 25°
2026-04-26 18:43 59.64647 17.92678 111 ft 1 kts
2026-04-26 18:43 59.64667 17.92650 111 ft 7 kts 305°
2026-04-26 18:43 59.64684 17.92555 110 ft 7 kts 287°
2026-04-26 18:43 59.64699 17.92459 109 ft 7 kts 285°
2026-04-26 18:44 59.64712 17.92365 110 ft 7 kts 285°
2026-04-26 18:44 59.64725 17.92276 111 ft 7 kts 286°
2026-04-26 18:44 59.64742 17.92166 110 ft 11 kts 287°
2026-04-26 18:44 59.64709 17.92039 107 ft 13 kts 192°
2026-04-26 18:45 59.64616 17.92005 108 ft 15 kts 190°
2026-04-26 18:45 59.64510 17.91967 110 ft 15 kts 191°
2026-04-26 18:45 59.64408 17.91929 111 ft 15 kts 190°
2026-04-26 18:45 59.64309 17.91893 111 ft 14 kts 191°
2026-04-26 18:46 59.64216 17.91860 113 ft 13 kts 190°
2026-04-26 18:46 59.64126 17.91827 111 ft 13 kts 190°
2026-04-26 18:46 59.64039 17.91796 112 ft 13 kts 190°
2026-04-26 18:46 59.63953 17.91765 110 ft 13 kts 190°
2026-04-26 18:47 59.63865 17.91728 108 ft 13 kts 201°
2026-04-26 18:47 59.63793 17.91624 106 ft 12 kts 220°
2026-04-26 18:47 59.63777 17.91598 106 ft 0 kts 220°
2026-04-26 18:48 59.63776 17.91597 106 ft 1 kts 220°
2026-04-26 18:48 59.63755 17.91561 106 ft 8 kts 221°
2026-04-26 18:48 59.63724 17.91464 107 ft 9 kts 270°
2026-04-26 18:49 59.63754 17.91364 108 ft 9 kts 322°
2026-04-26 18:49 59.63792 17.91349 109 ft 0 kts
2026-04-26 18:50 59.63873 17.91374 107 ft 38 kts
2026-04-26 18:50 59.64388 17.91561 108 ft 111 kts 10°
2026-04-26 18:51 59.65350 17.91903 154 ft 165 kts
2026-04-26 18:51 59.66537 17.92472 665 ft 190 kts 11°
2026-04-26 18:51 59.67848 17.92805 1550 ft 180 kts 349°
2026-04-26 18:51 59.68871 17.91670 2482 ft 178 kts 311°
2026-04-26 18:52 59.69238 17.89260 2974 ft 197 kts 272°
2026-04-26 18:52 59.69158 17.87406 3323 ft 202 kts 271°
2026-04-26 18:52 59.69014 17.83620 3978 ft 214 kts 271°
2026-04-26 18:52 59.68908 17.80671 4710 ft 215 kts 271°
2026-04-26 18:53 59.68783 17.77722 5490 ft 217 kts 265°
2026-04-26 18:53 59.68381 17.74671 5824 ft 243 kts 257°
2026-04-26 18:53 59.67829 17.71361 6244 ft 259 kts 256°
2026-04-26 18:53 59.67212 17.67972 6948 ft 267 kts 247°
2026-04-26 18:54 59.65993 17.65121 7695 ft 279 kts 219°
2026-04-26 18:54 59.64213 17.63476 8475 ft 287 kts 201°
2026-04-26 18:54 59.62282 17.62323 9226 ft 291 kts 200°
2026-04-26 18:54 59.60330 17.61192 9983 ft 294 kts 200°
2026-04-26 18:55 59.58349 17.60015 10480 ft 306 kts 201°
2026-04-26 18:55 59.56239 17.58730 10653 ft 328 kts 201°
2026-04-26 18:55 59.54002 17.57340 10867 ft 346 kts 204°
2026-04-26 18:55 59.51810 17.55258 11330 ft 351 kts 217°
2026-04-26 18:56 59.49898 17.52364 11926 ft 352 kts 227°
2026-04-26 18:56 59.48069 17.49133 12576 ft 356 kts 228°
2026-04-26 18:56 59.46223 17.45808 13208 ft 363 kts 229°
2026-04-26 18:56 59.44347 17.42435 13856 ft 369 kts 229°
2026-04-26 18:57 59.42432 17.39019 14481 ft 374 kts 229°
2026-04-26 18:57 59.41147 17.36744 14954 ft 375 kts 229°
2026-04-26 18:57 59.38525 17.32135 15894 ft 380 kts 229°
2026-04-26 18:57 59.36546 17.28670 16570 ft 383 kts 229°
2026-04-26 18:58 59.34563 17.25208 17225 ft 388 kts 229°
2026-04-26 18:58 59.32538 17.21681 17884 ft 392 kts 230°
2026-04-26 18:58 59.30476 17.18093 18112 ft 398 kts 230°
2026-04-26 18:58 59.28404 17.14499 18120 ft 396 kts 229°
2026-04-26 18:59 59.26349 17.10946 18113 ft 393 kts 229°
2026-04-26 18:59 59.24300 17.07400 18128 ft 394 kts 229°
2026-04-26 18:59 59.22242 17.03842 18135 ft 395 kts 229°
2026-04-26 18:59 59.20174 17.00285 18132 ft 397 kts 229°
2026-04-26 19:00 59.18065 16.96789 18129 ft 397 kts 228°
2026-04-26 19:00 59.15942 16.93352 18170 ft 400 kts 227°
2026-04-26 19:00 59.13816 16.89926 18649 ft 404 kts 227°
2026-04-26 19:00 59.11645 16.86432 19364 ft 403 kts 227°
2026-04-26 19:01 59.09483 16.82953 20002 ft 404 kts 228°
2026-04-26 19:01 59.07312 16.79451 20564 ft 407 kts 228°
2026-04-26 19:01 59.05124 16.75918 21105 ft 411 kts 228°
2026-04-26 19:01 59.02916 16.72360 21662 ft 414 kts 228°
2026-04-26 19:02 59.00697 16.68789 22211 ft 417 kts 228°
2026-04-26 19:02 58.98453 16.65186 22760 ft 419 kts 228°
2026-04-26 19:02 58.96202 16.61579 23293 ft 422 kts 228°
2026-04-26 19:02 58.94692 16.59161 23647 ft 424 kts 228°
2026-04-26 19:03 58.91637 16.54279 24216 ft 428 kts 228°
2026-04-26 19:03 58.89332 16.50605 24642 ft 430 kts 228°
2026-04-26 19:03 58.88071 16.48599 24874 ft 432 kts 228°
2026-04-26 19:03 58.85746 16.44905 25287 ft 434 kts 228°
2026-04-26 19:04 58.83403 16.41188 25698 ft 437 kts 228°
2026-04-26 19:04 58.81047 16.37456 26112 ft 440 kts 228°
2026-04-26 19:04 58.78679 16.33712 26502 ft 442 kts 228°
2026-04-26 19:04 58.76286 16.29932 26895 ft 445 kts 228°
2026-04-26 19:05 58.71466 16.22347 27637 ft 450 kts 227°
2026-04-26 19:05 58.69031 16.18527 27998 ft 452 kts 227°
2026-04-26 19:05 58.66591 16.14708 28242 ft 455 kts 227°
2026-04-26 19:06 58.64157 16.10903 28540 ft 458 kts 227°
2026-04-26 19:06 58.61682 16.07041 28913 ft 460 kts 227°
2026-04-26 19:06 58.59195 16.03170 29277 ft 461 kts 227°
2026-04-26 19:06 58.56705 15.99301 29692 ft 461 kts 227°
2026-04-26 19:07 58.54207 15.95429 30188 ft 460 kts 227°
2026-04-26 19:07 58.51728 15.91593 30621 ft 458 kts 227°
2026-04-26 19:07 58.49253 15.87769 31012 ft 457 kts 227°
2026-04-26 19:07 58.46788 15.83962 31383 ft 456 kts 227°
2026-04-26 19:08 58.44323 15.80161 31750 ft 455 kts 227°
2026-04-26 19:08 58.41857 15.76367 32131 ft 454 kts 227°
2026-04-26 19:08 58.39399 15.72596 32506 ft 453 kts 227°
2026-04-26 19:08 58.36952 15.68851 32876 ft 452 kts 226°
2026-04-26 19:09 58.34497 15.65101 33237 ft 451 kts 226°
2026-04-26 19:09 58.32053 15.61373 33636 ft 449 kts 226°
2026-04-26 19:09 58.29617 15.57663 34002 ft 448 kts 226°
2026-04-26 19:09 58.27184 15.53962 34207 ft 449 kts 226°
2026-04-26 19:10 58.24741 15.50249 34178 ft 450 kts 226°
2026-04-26 19:10 58.19863 15.42865 34179 ft 447 kts 226°
2026-04-26 19:11 58.15019 15.35554 34181 ft 444 kts 226°
2026-04-26 19:11 58.10195 15.28298 34194 ft 442 kts 226°
2026-04-26 19:12 58.05352 15.21043 34206 ft 447 kts 225°
2026-04-26 19:12 58.00468 15.13763 34203 ft 448 kts 225°
2026-04-26 19:13 57.96399 15.07719 34195 ft 447 kts 225°
2026-04-26 19:13 57.91542 15.00532 34201 ft 442 kts 225°
2026-04-26 19:14 57.86716 14.93403 34203 ft 440 kts 225°
2026-04-26 19:14 57.81891 14.86298 34227 ft 442 kts 225°
2026-04-26 19:15 57.77031 14.79163 34206 ft 444 kts 224°
2026-04-26 19:15 57.72181 14.72080 34213 ft 441 kts 224°
2026-04-26 19:16 57.67350 14.65048 34212 ft 439 kts 224°
2026-04-26 19:16 57.62567 14.58106 34211 ft 438 kts 224°
2026-04-26 19:17 57.57754 14.51143 34213 ft 437 kts 224°
2026-04-26 19:17 57.52991 14.44284 34209 ft 427 kts 224°
2026-04-26 19:18 57.48322 14.37580 34215 ft 422 kts 224°
2026-04-26 19:18 57.43666 14.30906 33827 ft 418 kts 224°
2026-04-26 19:18 57.41384 14.27653 33419 ft 410 kts 224°
2026-04-26 19:19 57.39142 14.24462 33081 ft 402 kts 224°
2026-04-26 19:19 57.36939 14.21328 32690 ft 396 kts 225°
2026-04-26 19:19 57.34752 14.18215 32356 ft 399 kts 225°
2026-04-26 19:19 57.32536 14.15054 31972 ft 405 kts 225°
2026-04-26 19:20 57.30295 14.11870 31590 ft 405 kts 224°
2026-04-26 19:20 57.28786 14.09735 31335 ft 402 kts 224°
2026-04-26 19:20 57.25870 14.05622 30840 ft 395 kts 225°
2026-04-26 19:20 57.23692 14.02551 30481 ft 392 kts 225°
2026-04-26 19:21 57.21531 13.99504 30099 ft 390 kts 225°
2026-04-26 19:21 57.19377 13.96469 29697 ft 389 kts 225°
2026-04-26 19:21 57.17230 13.93454 29339 ft 387 kts 225°
2026-04-26 19:21 57.15093 13.90457 28952 ft 386 kts 225°
2026-04-26 19:22 57.12957 13.87470 28610 ft 383 kts 224°
2026-04-26 19:22 57.10836 13.84509 28253 ft 382 kts 224°
2026-04-26 19:22 57.08724 13.81563 27876 ft 381 kts 224°
2026-04-26 19:22 57.06613 13.78621 27486 ft 380 kts 224°
2026-04-26 19:23 57.04503 13.75686 27132 ft 379 kts 224°
2026-04-26 19:23 57.02402 13.72765 26762 ft 378 kts 224°
2026-04-26 19:23 57.00309 13.69861 26387 ft 376 kts 224°
2026-04-26 19:23 56.98224 13.66972 26027 ft 374 kts 224°
2026-04-26 19:24 56.96150 13.64102 25661 ft 372 kts 224°
2026-04-26 19:24 56.94095 13.61263 25303 ft 369 kts 224°
2026-04-26 19:24 56.90047 13.55684 24581 ft 360 kts 224°
2026-04-26 19:25 56.88055 13.52942 24234 ft 357 kts 224°
2026-04-26 19:25 56.86744 13.51140 24002 ft 355 kts 224°
2026-04-26 19:25 56.84116 13.47528 23494 ft 352 kts 224°
2026-04-26 19:25 56.82166 13.44854 23098 ft 349 kts 224°
2026-04-26 19:26 56.80226 13.42196 22753 ft 347 kts 224°
2026-04-26 19:26 56.78288 13.39541 22404 ft 349 kts 224°
2026-04-26 19:26 56.76368 13.36916 22060 ft 349 kts 224°
2026-04-26 19:26 56.74435 13.34281 21701 ft 347 kts 224°
2026-04-26 19:27 56.72504 13.31654 21355 ft 345 kts 224°
2026-04-26 19:27 56.70586 13.29048 21024 ft 343 kts 224°
2026-04-26 19:27 56.68677 13.26454 20689 ft 341 kts 224°
2026-04-26 19:27 56.66781 13.23882 20350 ft 340 kts 224°
2026-04-26 19:28 56.64880 13.21309 20004 ft 338 kts 223°
2026-04-26 19:28 56.63001 13.18770 19667 ft 336 kts 223°
2026-04-26 19:28 56.61132 13.16249 19332 ft 334 kts 223°
2026-04-26 19:28 56.59273 13.13744 18996 ft 332 kts 223°
2026-04-26 19:29 56.57430 13.11262 18669 ft 330 kts 223°
2026-04-26 19:29 56.55582 13.08776 18295 ft 329 kts 223°
2026-04-26 19:29 56.53749 13.06312 17937 ft 328 kts 223°
2026-04-26 19:29 56.51921 13.03857 17576 ft 326 kts 223°
2026-04-26 19:30 56.50105 13.01423 17256 ft 324 kts 223°
2026-04-26 19:30 56.48300 12.99006 16920 ft 322 kts 223°
2026-04-26 19:30 56.46498 12.96595 16594 ft 321 kts 223°
2026-04-26 19:30 56.45314 12.95011 16369 ft 320 kts 223°
2026-04-26 19:31 56.42942 12.91845 15941 ft 318 kts 223°
2026-04-26 19:31 56.41162 12.89472 15626 ft 318 kts 223°
2026-04-26 19:31 56.39383 12.87103 15292 ft 317 kts 223°
2026-04-26 19:31 56.37607 12.84741 14972 ft 316 kts 223°
2026-04-26 19:32 56.35840 12.82392 14651 ft 316 kts 223°
2026-04-26 19:32 56.34072 12.80046 14327 ft 315 kts 223°
2026-04-26 19:32 56.32305 12.77704 13995 ft 315 kts 223°
2026-04-26 19:32 56.30545 12.75375 13634 ft 312 kts 223°
2026-04-26 19:33 56.28805 12.73076 13286 ft 308 kts 223°
2026-04-26 19:33 56.27090 12.70812 12961 ft 304 kts 223°
2026-04-26 19:33 56.25392 12.68571 12649 ft 301 kts 223°
2026-04-26 19:33 56.23709 12.66350 12337 ft 299 kts 222°
2026-04-26 19:34 56.22033 12.64142 12034 ft 297 kts 222°
2026-04-26 19:34 56.20368 12.61953 11734 ft 296 kts 222°
2026-04-26 19:34 56.18667 12.59838 11429 ft 301 kts 212°
2026-04-26 19:34 56.16710 12.58568 11198 ft 304 kts 201°
2026-04-26 19:35 56.14672 12.57537 10946 ft 304 kts 200°
2026-04-26 19:35 56.12633 12.56535 10699 ft 303 kts 200°
2026-04-26 19:35 56.10598 12.55526 10455 ft 303 kts 200°
2026-04-26 19:35 56.08574 12.54507 10208 ft 302 kts 200°
2026-04-26 19:36 56.06556 12.53478 9940 ft 301 kts 200°
2026-04-26 19:36 56.05225 12.52794 9765 ft 301 kts 200°
2026-04-26 19:36 56.02538 12.51406 9407 ft 300 kts 200°
2026-04-26 19:36 56.00537 12.50368 9140 ft 299 kts 200°
2026-04-26 19:37 55.98542 12.49331 8872 ft 298 kts 200°
2026-04-26 19:37 55.96570 12.48306 8604 ft 293 kts 200°
2026-04-26 19:37 55.94621 12.47294 8333 ft 288 kts 200°
2026-04-26 19:37 55.92711 12.46303 8074 ft 284 kts 200°
2026-04-26 19:38 55.90824 12.45322 7818 ft 282 kts 200°
2026-04-26 19:38 55.88951 12.44349 7562 ft 279 kts 200°
2026-04-26 19:38 55.87089 12.43382 7343 ft 278 kts 200°
2026-04-26 19:38 55.85223 12.42413 7291 ft 281 kts 200°
2026-04-26 19:39 55.83376 12.41455 7267 ft 279 kts 200°
2026-04-26 19:39 55.81494 12.40482 7259 ft 278 kts 200°
2026-04-26 19:39 55.79627 12.39515 7264 ft 279 kts 200°
2026-04-26 19:39 55.77764 12.38553 7267 ft 279 kts 200°
2026-04-26 19:40 55.75894 12.37588 7263 ft 279 kts 200°
2026-04-26 19:40 55.74025 12.36624 7264 ft 279 kts 200°
2026-04-26 19:40 55.72156 12.35662 7266 ft 279 kts 200°
2026-04-26 19:40 55.70281 12.34700 6990 ft 286 kts 199°
2026-04-26 19:41 55.68372 12.33722 6458 ft 291 kts 199°
2026-04-26 19:41 55.66453 12.32741 6089 ft 283 kts 199°
2026-04-26 19:41 55.64583 12.31787 5780 ft 275 kts 199°
2026-04-26 19:41 55.63348 12.31156 5588 ft 271 kts 199°
2026-04-26 19:42 55.60981 12.29945 5215 ft 262 kts 199°
2026-04-26 19:42 55.59257 12.29063 4946 ft 253 kts 199°
2026-04-26 19:42 55.57593 12.28211 4700 ft 244 kts 199°
2026-04-26 19:42 55.55985 12.27392 4442 ft 237 kts 198°
2026-04-26 19:43 55.54410 12.26711 4273 ft 226 kts 196°
2026-04-26 19:43 55.52918 12.26116 4166 ft 213 kts 196°
2026-04-26 19:43 55.51485 12.25558 4072 ft 210 kts 195°
2026-04-26 19:43 55.50047 12.25000 4073 ft 212 kts 195°
2026-04-26 19:44 55.48610 12.24444 4038 ft 212 kts 195°
2026-04-26 19:44 55.47182 12.23895 3992 ft 206 kts 195°
2026-04-26 19:44 55.45797 12.23368 3757 ft 200 kts 195°
2026-04-26 19:44 55.44465 12.23017 3671 ft 193 kts 178°
2026-04-26 19:45 55.43260 12.23956 3668 ft 195 kts 136°
2026-04-26 19:45 55.42635 12.26073 3658 ft 200 kts 95°
2026-04-26 19:45 55.42755 12.28499 3636 ft 201 kts 76°
2026-04-26 19:45 55.43043 12.30919 3563 ft 201 kts 75°
2026-04-26 19:46 55.43339 12.33305 3485 ft 199 kts 75°
2026-04-26 19:46 55.43649 12.35640 3385 ft 198 kts 68°
2026-04-26 19:46 55.44447 12.37491 3318 ft 188 kts 30°
2026-04-26 19:46 55.45499 12.38904 3236 ft 195 kts 38°
2026-04-26 19:47 55.46495 12.40516 3119 ft 194 kts 38°
2026-04-26 19:47 55.47153 12.41568 3039 ft 192 kts 38°
2026-04-26 19:47 55.48507 12.43692 2892 ft 197 kts 38°
2026-04-26 19:47 55.49538 12.45296 2629 ft 197 kts 38°
2026-04-26 19:48 55.50561 12.46887 2354 ft 194 kts 38°
2026-04-26 19:48 55.51565 12.48449 2089 ft 190 kts 39°
2026-04-26 19:48 55.52549 12.49980 1826 ft 188 kts 39°
2026-04-26 19:48 55.53514 12.51479 1576 ft 180 kts 39°
2026-04-26 19:49 55.54423 12.52892 1321 ft 169 kts 39°
2026-04-26 19:49 55.55288 12.54236 1092 ft 162 kts 40°
2026-04-26 19:49 55.56107 12.55507 922 ft 153 kts 40°
2026-04-26 19:49 55.56893 12.56712 760 ft 145 kts 40°
2026-04-26 19:50 55.57638 12.57904 514 ft 145 kts 40°
2026-04-26 19:50 55.58399 12.59063 314 ft 143 kts 40°
2026-04-26 19:50 55.59128 12.60184 148 ft 137 kts 41°
2026-04-26 19:50 55.59878 12.61213 505 ft 134 kts 34°
2026-04-26 19:51 55.60670 12.62116 923 ft 141 kts 30°
2026-04-26 19:51 55.61543 12.63008 1302 ft 149 kts 26°
2026-04-26 19:51 55.62552 12.63871 1586 ft 173 kts 21°
2026-04-26 19:51 55.63728 12.64416 2106 ft 183 kts 354°
2026-04-26 19:52 55.65029 12.63932 2520 ft 197 kts 341°
2026-04-26 19:52 55.66355 12.63192 2950 ft 204 kts 338°
2026-04-26 19:52 55.67733 12.62343 2977 ft 212 kts 338°
2026-04-26 19:52 55.69139 12.61487 2972 ft 214 kts 339°
2026-04-26 19:53 55.70554 12.60678 2973 ft 214 kts 340°
2026-04-26 19:53 55.71929 12.59958 2984 ft 213 kts 341°
2026-04-26 19:53 55.73365 12.59276 3001 ft 213 kts 342°
2026-04-26 19:53 55.74810 12.58652 3002 ft 214 kts 344°
2026-04-26 19:54 55.76244 12.58076 3004 ft 214 kts 344°
2026-04-26 19:54 55.77724 12.57509 3001 ft 215 kts 345°
2026-04-26 19:54 55.79076 12.56597 2979 ft 209 kts 319°
2026-04-26 19:54 55.79885 12.54552 2992 ft 204 kts 283°
2026-04-26 19:55 55.79838 12.52079 2995 ft 203 kts 248°
2026-04-26 19:55 55.79014 12.50057 3013 ft 206 kts 227°
2026-04-26 19:55 55.77976 12.48266 3004 ft 208 kts 225°
2026-04-26 19:55 55.76935 12.46520 2980 ft 202 kts 225°
2026-04-26 19:56 55.75924 12.44843 2982 ft 196 kts 225°
2026-04-26 19:56 55.74922 12.43187 2993 ft 198 kts 225°
2026-04-26 19:56 55.73912 12.41517 2997 ft 199 kts 225°
2026-04-26 19:56 55.72896 12.39841 2997 ft 200 kts 225°
2026-04-26 19:57 55.71878 12.38159 3000 ft 200 kts 225°
2026-04-26 19:57 55.70857 12.36473 2997 ft 201 kts 225°
2026-04-26 19:57 55.69732 12.35022 2981 ft 203 kts 201°
2026-04-26 19:57 55.68810 12.34736 3003 ft 204 kts 185°
2026-04-26 19:58 55.67378 12.34643 3010 ft 208 kts 185°
2026-04-26 19:58 55.65926 12.34545 2997 ft 208 kts 185°
2026-04-26 19:58 55.64491 12.34451 2983 ft 206 kts 185°
2026-04-26 19:58 55.63068 12.34361 2976 ft 203 kts 185°
2026-04-26 19:59 55.61674 12.34275 3008 ft 200 kts 185°
2026-04-26 19:59 55.60266 12.34191 3016 ft 204 kts 185°
2026-04-26 19:59 55.58834 12.34106 3006 ft 207 kts 185°
2026-04-26 19:59 55.57401 12.34020 2992 ft 206 kts 185°
2026-04-26 20:00 55.55967 12.33937 2969 ft 206 kts 185°
2026-04-26 20:00 55.54521 12.33856 2766 ft 209 kts 184°
2026-04-26 20:00 55.53095 12.34334 2525 ft 214 kts 153°
2026-04-26 20:00 55.51964 12.36023 2343 ft 212 kts 136°
2026-04-26 20:01 55.50952 12.37904 2128 ft 210 kts 135°
2026-04-26 20:01 55.50041 12.39887 2013 ft 213 kts 117°
2026-04-26 20:01 55.49813 12.42388 1992 ft 205 kts 81°
2026-04-26 20:01 55.50111 12.44805 2001 ft 195 kts 74°
2026-04-26 20:02 55.50747 12.46807 2001 ft 190 kts 42°
2026-04-26 20:02 55.51685 12.48487 1998 ft 193 kts 44°
2026-04-26 20:02 55.52658 12.50147 1791 ft 194 kts 40°
2026-04-26 20:02 55.53322 12.51190 1614 ft 186 kts 39°
2026-04-26 20:03 55.54554 12.53096 1297 ft 168 kts 39°
2026-04-26 20:03 55.55410 12.54426 1067 ft 159 kts 39°
2026-04-26 20:03 55.56219 12.55681 850 ft 153 kts 40°
2026-04-26 20:03 55.57001 12.56893 643 ft 146 kts 40°
2026-04-26 20:04 55.57742 12.58041 482 ft 141 kts 42°
2026-04-26 20:04 55.58480 12.59194 265 ft 141 kts 41°
2026-04-26 20:04 55.59223 12.60342 83 ft 142 kts 41°
2026-04-26 20:04 55.59918 12.61432 23 ft 118 kts 41°
2026-04-26 20:05 55.60386 12.62151 22 ft 59 kts 38°
2026-04-26 20:05 55.60578 12.62325 25 ft 15 kts 16°
2026-04-26 20:05 55.60606 12.62337 25 ft 0 kts 12°
2026-04-26 20:06 55.60623 12.62343 28 ft 4 kts 12°
2026-04-26 20:06 55.60666 12.62358 24 ft 11 kts
2026-04-26 20:06 55.60772 12.62398 23 ft 17 kts 16°
2026-04-26 20:06 55.60865 12.62513 26 ft 16 kts 42°
2026-04-26 20:07 55.60947 12.62641 23 ft 15 kts 41°
2026-04-26 20:07 55.61025 12.62762 24 ft 15 kts 41°
2026-04-26 20:07 55.61103 12.62881 23 ft 15 kts 41°
2026-04-26 20:07 55.61183 12.63005 24 ft 15 kts 41°
2026-04-26 20:08 55.61259 12.63123 26 ft 14 kts 41°
2026-04-26 20:08 55.61342 12.63252 25 ft 20 kts 41°
2026-04-26 20:08 55.61453 12.63423 24 ft 21 kts 41°
2026-04-26 20:08 55.61571 12.63605 26 ft 23 kts 41°
2026-04-26 20:09 55.61687 12.63786 23 ft 22 kts 41°
2026-04-26 20:09 55.61800 12.63960 27 ft 20 kts 41°
2026-04-26 20:09 55.61909 12.64102 23 ft 19 kts 24°
2026-04-26 20:09 55.62028 12.64202 27 ft 19 kts 25°
2026-04-26 20:10 55.62143 12.64298 22 ft 18 kts 25°
2026-04-26 20:10 55.62262 12.64387 21 ft 18 kts 15°
2026-04-26 20:10 55.62383 12.64445 23 ft 18 kts 15°
2026-04-26 20:10 55.62498 12.64469 24 ft 17 kts 324°
2026-04-26 20:11 55.62555 12.64328 26 ft 13 kts 303°
2026-04-26 20:11 55.62604 12.64195 23 ft 13 kts 303°
2026-04-26 20:11 55.62648 12.64076 23 ft 8 kts 303°
2026-04-26 20:12 55.62708 12.64078 24 ft 5 kts 33°
2026-04-26 20:12 55.62719 12.64090 27 ft 0 kts 33°